User: anonymous   Login
Location: Bermeries
(50.2863°N, 3.7551°E)
Time: 22:48:18
(UTC+00:00)
Language:

ADEOS II - Orbit

View from above orbital plane
View from above orbital plane
View from above satellite
View from above satellite

Ground track
Ground track

The orbit data is extracted from the following two-line orbital elements,

1 27597U 02056A   24204.41202478  .00000797  00000-0  33662-3 0  9999
2 27597  98.6927 150.9584 0000679  31.2674 328.8548 14.28421142125263
Epoch (UTC): 22 July 2024 09:53:18
Eccentricity: 0.0000679
inclination: 98.6927°
perigee height: 796 km
apogee height: 797 km
right ascension of ascending node: 150.9584°
argument of perigee: 31.2674°
revolutions per day: 14.28421142
mean anomaly at epoch: 328.8548°
orbit number at epoch: 12526

The dashed part of the orbit path shows where the satellite is in the earth's shadow,  

DLR